Location: Cheching
(60.0667°N, 164.2167°W)
Time: 14:28:39
(UTC+00:00)

STRAND 1 - Pass Details

Date: 23 January 2021
Orbit: 768 x 780 km, 98.4° (Epoch: 04 March)

Event Time Altitude Azimuth Distance (km) Brightness Sun altitude
Rises 16:17:09 0° 143° (SE) 3,240 ? -23.0°
Reaches altitude 10° 16:19:29 10° 139° (SE) 2,318 ? -22.8°
Maximum altitude 16:24:27 55° 63° (ENE) 934 ? -22.1°
Drops below altitude 10° 16:29:28 10° 347° (NNW) 2,340 ? -21.5°
Enters shadow 16:31:16 - 344° (NNW) 3,047 ? -21.3°
